Time,TemperatureF,DewpointF,PressureIn,WindDirection,WindDirectionDegrees,WindSpeedMPH,WindSpeedGustMPH,Humidity,HourlyPrecipIn,Conditions,Clouds,dailyrainin,SoftwareType,DateUTC
2013-02-26 00:04:00,37.9,26.0,30.00,NNE,26,3.0,11.0,62,0.00,,,0.00,weatherlink.com 1.10,2013-02-26 05:04:00,
2013-02-26 00:19:00,37.9,26.0,30.00,ENE,69,2.0,7.0,63,0.00,,,0.00,weatherlink.com 1.10,2013-02-26 05:19:00,
2013-02-26 00:34:00,37.4,27.0,29.98,ENE,71,3.0,10.0,66,0.00,,,0.00,weatherlink.com 1.10,2013-02-26 05:34:00,
2013-02-26 00:49:00,36.8,27.0,29.98,East,96,1.0,11.0,68,0.00,,,0.00,weatherlink.com 1.10,2013-02-26 05:49:00,
2013-02-26 01:04:00,35.9,28.0,29.97,North,9,1.0,11.0,74,0.00,,,0.00,weatherlink.com 1.10,2013-02-26 06:04:00,
2013-02-26 01:19:00,35.2,29.0,29.98,East,90,2.0,11.0,77,0.00,,,0.00,weatherlink.com 1.10,2013-02-26 06:19:00,
2013-02-26 01:34:00,34.7,29.0,29.97,NNE,26,4.0,10.0,79,0.00,,,0.00,weatherlink.com 1.10,2013-02-26 06:34:00,
2013-02-26 01:49:00,34.6,29.0,29.96,NE,36,3.0,12.0,80,0.00,,,0.00,weatherlink.com 1.10,2013-02-26 06:49:00,
2013-02-26 02:04:00,34.1,30.0,29.95,NNE,15,7.0,9.0,84,0.00,,,0.00,weatherlink.com 1.10,2013-02-26 07:04:00,
2013-02-26 02:19:00,33.2,30.0,29.94,NNE,30,7.0,10.0,88,0.00,,,0.00,weatherlink.com 1.10,2013-02-26 07:19:00,
2013-02-26 02:34:00,32.9,30.0,29.93,North,5,4.0,9.0,90,0.00,,,0.00,weatherlink.com 1.10,2013-02-26 07:34:00,
2013-02-26 02:49:00,32.9,30.0,29.91,East,101,0.0,11.0,90,0.00,,,0.00,weatherlink.com 1.10,2013-02-26 07:49:00,
2013-02-26 03:05:00,32.9,31.0,29.91,NE,35,0.0,8.0,91,0.00,,,0.00,weatherlink.com 1.10,2013-02-26 08:05:00,
2013-02-26 03:20:00,32.9,31.0,29.91,North,5,3.0,8.0,91,0.01,,,0.01,weatherlink.com 1.10,2013-02-26 08:20:00,
2013-02-26 03:35:00,32.8,31.0,29.89,NE,48,4.0,7.0,92,0.01,,,0.01,weatherlink.com 1.10,2013-02-26 08:35:00,
2013-02-26 03:50:00,32.8,31.0,29.89,ENE,74,0.0,4.0,93,0.02,,,0.02,weatherlink.com 1.10,2013-02-26 08:50:00,
2013-02-26 04:05:00,33.0,31.0,29.90,North,360,2.0,3.0,93,0.03,,,0.03,weatherlink.com 1.10,2013-02-26 09:05:00,
2013-02-26 04:20:00,33.0,32.0,29.90,NNE,13,0.0,4.0,94,0.08,,,0.09,weatherlink.com 1.10,2013-02-26 09:20:00,
2013-02-26 04:35:00,33.1,32.0,29.89,ESE,107,0.0,2.0,94,0.12,,,0.13,weatherlink.com 1.10,2013-02-26 09:35:00,
2013-02-26 04:50:00,33.2,32.0,29.88,ESE,107,0.0,1.0,94,0.17,,,0.19,weatherlink.com 1.10,2013-02-26 09:50:00,
2013-02-26 05:05:00,33.3,32.0,29.88,ESE,106,1.0,1.0,94,0.20,,,0.24,weatherlink.com 1.10,2013-02-26 10:05:00,
2013-02-26 05:20:00,33.4,32.0,29.88,NE,42,0.0,2.0,95,0.18,,,0.27,weatherlink.com 1.10,2013-02-26 10:20:00,
2013-02-26 05:35:00,33.5,32.0,29.87,NNE,30,1.0,2.0,95,0.19,,,0.32,weatherlink.com 1.10,2013-02-26 10:35:00,
2013-02-26 05:50:00,33.6,32.0,29.88,East,94,0.0,2.0,95,0.19,,,0.38,weatherlink.com 1.10,2013-02-26 10:50:00,
2013-02-26 06:05:00,33.7,33.0,29.86,East,94,2.0,2.0,95,0.19,,,0.43,weatherlink.com 1.10,2013-02-26 11:05:00,
2013-02-26 06:20:00,33.7,33.0,29.84,East,86,1.0,2.0,95,0.21,,,0.48,weatherlink.com 1.10,2013-02-26 11:20:00,
2013-02-26 06:35:00,33.9,33.0,29.84,North,9,2.0,4.0,95,0.21,,,0.53,weatherlink.com 1.10,2013-02-26 11:35:00,
2013-02-26 06:50:00,33.9,33.0,29.82,North,355,4.0,4.0,95,0.19,,,0.57,weatherlink.com 1.10,2013-02-26 11:50:00,
2013-02-26 07:05:00,34.1,33.0,29.82,NNW,340,1.0,6.0,95,0.18,,,0.61,weatherlink.com 1.10,2013-02-26 12:05:00,
2013-02-26 07:20:00,34.3,33.0,29.81,NNW,340,3.0,4.0,95,0.15,,,0.64,weatherlink.com 1.10,2013-02-26 12:20:00,
2013-02-26 07:35:00,34.6,33.0,29.81,SW,225,1.0,4.0,95,0.14,,,0.67,weatherlink.com 1.10,2013-02-26 12:35:00,
2013-02-26 07:50:00,34.4,33.0,29.80,ENE,74,0.0,4.0,95,0.13,,,0.70,weatherlink.com 1.10,2013-02-26 12:50:00,
2013-02-26 08:05:00,34.5,33.0,29.79,SSW,197,0.0,3.0,95,0.12,,,0.73,weatherlink.com 1.10,2013-02-26 13:05:00,
2013-02-26 08:20:00,36.0,35.0,29.76,NNE,32,5.0,12.0,96,0.12,,,0.76,weatherlink.com 1.10,2013-02-26 13:20:00,
2013-02-26 08:35:00,36.4,35.0,29.77,WNW,292,1.0,8.0,95,0.11,,,0.78,weatherlink.com 1.10,2013-02-26 13:35:00,
2013-02-26 08:54:00,36.3,35.0,29.78,West,281,2.0,6.0,94,0.11,,,0.81,weatherlink.com 1.10,2013-02-26 13:54:00,
2013-02-26 09:05:00,34.8,33.0,29.79,NW,320,5.0,11.0,94,0.10,,,0.83,weatherlink.com 1.10,2013-02-26 14:05:00,
2013-02-26 09:20:00,34.2,33.0,29.77,North,350,3.0,6.0,95,0.10,,,0.86,weatherlink.com 1.10,2013-02-26 14:20:00,
2013-02-26 09:35:00,34.6,33.0,29.75,West,277,2.0,4.0,95,0.10,,,0.89,weatherlink.com 1.10,2013-02-26 14:35:00,
2013-02-26 09:50:00,35.1,34.0,29.73,WSW,254,4.0,5.0,96,0.11,,,0.92,weatherlink.com 1.10,2013-02-26 14:50:00,
2013-02-26 10:05:00,35.3,34.0,29.72,WSW,244,6.0,7.0,96,0.12,,,0.95,weatherlink.com 1.10,2013-02-26 15:05:00,
2013-02-26 10:20:00,36.1,35.0,29.73,WNW,288,4.0,6.0,96,0.11,,,0.97,weatherlink.com 1.10,2013-02-26 15:20:00,
2013-02-26 10:35:00,36.6,36.0,29.72,NE,38,3.0,8.0,96,0.11,,,1.00,weatherlink.com 1.10,2013-02-26 15:35:00,
2013-02-26 10:50:00,37.1,36.0,29.70,ESE,111,0.0,7.0,94,0.11,,,1.03,weatherlink.com 1.10,2013-02-26 15:50:00,
2013-02-26 11:05:00,37.5,36.0,29.68,SE,126,2.0,13.0,94,0.10,,,1.05,weatherlink.com 1.10,2013-02-26 16:05:00,
2013-02-26 11:21:00,38.0,36.0,29.67,ESE,109,1.0,11.0,93,0.09,,,1.07,weatherlink.com 1.10,2013-02-26 16:21:00,
2013-02-26 11:36:00,38.2,36.0,29.63,East,86,1.0,9.0,93,0.09,,,1.09,weatherlink.com 1.10,2013-02-26 16:36:00,
2013-02-26 11:51:00,38.3,37.0,29.61,NNE,12,3.0,11.0,94,0.08,,,1.11,weatherlink.com 1.10,2013-02-26 16:51:00,
2013-02-26 12:06:00,38.7,37.0,29.65,NE,36,3.0,11.0,94,0.08,,,1.13,weatherlink.com 1.10,2013-02-26 17:06:00,
2013-02-26 12:21:00,37.8,36.0,29.63,SW,227,1.0,11.0,93,0.08,,,1.15,weatherlink.com 1.10,2013-02-26 17:21:00,
2013-02-26 12:36:00,36.9,35.0,29.62,WSW,241,1.0,6.0,94,0.08,,,1.17,weatherlink.com 1.10,2013-02-26 17:36:00,
2013-02-26 12:51:00,36.2,35.0,29.62,NW,306,4.0,7.0,94,0.08,,,1.19,weatherlink.com 1.10,2013-02-26 17:51:00,
2013-02-26 13:06:00,36.6,35.0,29.59,West,279,1.0,7.0,95,0.07,,,1.20,weatherlink.com 1.10,2013-02-26 18:06:00,
2013-02-26 13:21:00,37.6,37.0,29.57,SSW,210,4.0,5.0,96,0.07,,,1.22,weatherlink.com 1.10,2013-02-26 18:21:00,
2013-02-26 13:36:00,36.1,35.0,29.61,WNW,292,6.0,12.0,95,0.06,,,1.23,weatherlink.com 1.10,2013-02-26 18:36:00,
2013-02-26 13:51:00,35.9,35.0,29.59,NE,49,0.0,7.0,95,0.06,,,1.25,weatherlink.com 1.10,2013-02-26 18:51:00,
2013-02-26 14:06:00,37.0,36.0,29.57,NE,40,4.0,8.0,96,0.07,,,1.27,weatherlink.com 1.10,2013-02-26 19:06:00,
2013-02-26 14:21:00,37.5,36.0,29.56,North,360,4.0,4.0,95,0.06,,,1.28,weatherlink.com 1.10,2013-02-26 19:21:00,
2013-02-26 14:36:00,37.8,37.0,29.56,South,172,1.0,2.0,95,0.07,,,1.30,weatherlink.com 1.10,2013-02-26 19:36:00,
2013-02-26 14:51:00,38.2,37.0,29.55,East,98,2.0,3.0,95,0.06,,,1.31,weatherlink.com 1.10,2013-02-26 19:51:00,
2013-02-26 15:06:00,38.5,37.0,29.55,NNW,340,0.0,1.0,95,0.06,,,1.33,weatherlink.com 1.10,2013-02-26 20:06:00,
2013-02-26 15:21:00,38.9,38.0,29.54,SSE,160,1.0,2.0,96,0.06,,,1.34,weatherlink.com 1.10,2013-02-26 20:21:00,
2013-02-26 15:36:00,39.3,38.0,29.54,SE,134,0.0,2.0,95,0.05,,,1.35,weatherlink.com 1.10,2013-02-26 20:36:00,
2013-02-26 15:51:00,39.4,38.0,29.54,West,273,2.0,3.0,96,0.06,,,1.37,weatherlink.com 1.10,2013-02-26 20:51:00,
2013-02-26 16:06:00,38.9,38.0,29.54,WSW,252,3.0,4.0,95,0.05,,,1.38,weatherlink.com 1.10,2013-02-26 21:06:00,
2013-02-26 16:21:00,38.7,37.0,29.54,SW,227,1.0,5.0,95,0.05,,,1.39,weatherlink.com 1.10,2013-02-26 21:21:00,
2013-02-26 16:36:00,38.8,38.0,29.53,WNW,286,0.0,1.0,96,0.05,,,1.40,weatherlink.com 1.10,2013-02-26 21:36:00,
2013-02-26 16:51:00,39.2,38.0,29.53,North,350,0.0,2.0,96,0.04,,,1.41,weatherlink.com 1.10,2013-02-26 21:51:00,
2013-02-26 17:06:00,39.3,38.0,29.53,South,184,0.0,3.0,96,0.04,,,1.42,weatherlink.com 1.10,2013-02-26 22:06:00,
2013-02-26 17:21:00,39.4,38.0,29.53,ENE,73,0.0,1.0,96,0.04,,,1.43,weatherlink.com 1.10,2013-02-26 22:21:00,
2013-02-26 17:36:00,39.5,39.0,29.54,SSE,159,0.0,3.0,96,0.04,,,1.44,weatherlink.com 1.10,2013-02-26 22:36:00,
2013-02-26 17:51:00,39.3,38.0,29.54,SSE,160,1.0,3.0,96,0.04,,,1.45,weatherlink.com 1.10,2013-02-26 22:51:00,
2013-02-26 18:06:00,39.1,38.0,29.54,SW,229,2.0,3.0,96,0.03,,,1.45,weatherlink.com 1.10,2013-02-26 23:06:00,
2013-02-26 18:21:00,38.9,38.0,29.55,WSW,238,2.0,3.0,96,0.03,,,1.46,weatherlink.com 1.10,2013-02-26 23:21:00,
2013-02-26 18:36:00,38.8,38.0,29.55,WSW,244,0.0,2.0,96,0.03,,,1.47,weatherlink.com 1.10,2013-02-26 23:36:00,
2013-02-26 18:51:00,38.8,38.0,29.56,WSW,244,0.0,0.0,96,0.02,,,1.47,weatherlink.com 1.10,2013-02-26 23:51:00,
2013-02-26 19:06:00,38.9,38.0,29.57,WSW,244,0.0,2.0,97,0.03,,,1.48,weatherlink.com 1.10,2013-02-27 00:06:00,
2013-02-26 19:21:00,39.0,38.0,29.57,WSW,244,1.0,1.0,97,0.02,,,1.48,weatherlink.com 1.10,2013-02-27 00:21:00,
2013-02-26 19:36:00,38.9,38.0,29.57,WSW,244,1.0,3.0,97,0.02,,,1.49,weatherlink.com 1.10,2013-02-27 00:36:00,
2013-02-26 19:51:00,38.8,38.0,29.57,WSW,244,0.0,1.0,97,0.02,,,1.49,weatherlink.com 1.10,2013-02-27 00:51:00,
2013-02-26 20:07:00,38.6,38.0,29.57,NNE,24,1.0,3.0,96,0.01,,,1.49,weatherlink.com 1.10,2013-02-27 01:07:00,
2013-02-26 20:21:00,38.5,38.0,29.57,NNE,24,0.0,1.0,97,0.01,,,1.49,weatherlink.com 1.10,2013-02-27 01:21:00,
2013-02-26 20:36:00,38.4,38.0,29.57,SE,146,1.0,3.0,97,0.00,,,1.49,weatherlink.com 1.10,2013-02-27 01:36:00,
2013-02-26 20:51:00,38.2,38.0,29.58,SSW,194,0.0,4.0,97,0.00,,,1.49,weatherlink.com 1.10,2013-02-27 01:51:00,
2013-02-26 21:06:00,37.7,37.0,29.58,South,182,2.0,4.0,97,0.00,,,1.49,weatherlink.com 1.10,2013-02-27 02:06:00,
2013-02-26 21:21:00,37.4,37.0,29.58,SSW,195,4.0,4.0,97,0.00,,,1.49,weatherlink.com 1.10,2013-02-27 02:21:00,
2013-02-26 21:36:00,37.0,36.0,29.59,SSW,199,0.0,3.0,97,0.00,,,1.49,weatherlink.com 1.10,2013-02-27 02:36:00,
2013-02-26 21:51:00,36.9,36.0,29.59,SSW,192,2.0,4.0,97,0.00,,,1.49,weatherlink.com 1.10,2013-02-27 02:51:00,
2013-02-26 22:06:00,36.8,36.0,29.59,South,169,0.0,3.0,97,0.00,,,1.49,weatherlink.com 1.10,2013-02-27 03:06:00,
2013-02-26 22:21:00,36.8,36.0,29.59,SW,227,1.0,4.0,97,0.00,,,1.49,weatherlink.com 1.10,2013-02-27 03:21:00,
2013-02-26 22:36:00,36.8,36.0,29.59,SW,227,1.0,3.0,97,0.00,,,1.49,weatherlink.com 1.10,2013-02-27 03:36:00,
2013-02-26 22:51:00,36.9,36.0,29.59,SW,227,0.0,1.0,97,0.00,,,1.49,weatherlink.com 1.10,2013-02-27 03:51:00,
2013-02-26 23:06:00,37.1,36.0,29.59,SW,227,1.0,2.0,97,0.00,,,1.49,weatherlink.com 1.10,2013-02-27 04:06:00,
2013-02-26 23:21:00,37.3,37.0,29.58,SW,227,2.0,2.0,97,0.00,,,1.49,weatherlink.com 1.10,2013-02-27 04:21:00,
2013-02-26 23:36:00,37.8,37.0,29.57,West,263,1.0,3.0,97,0.00,,,1.49,weatherlink.com 1.10,2013-02-27 04:36:00,
2013-02-26 23:51:00,38.2,38.0,29.58,NNE,15,0.0,2.0,98,0.00,,,1.49,weatherlink.com 1.10,2013-02-27 04:51:00,